[[{"header":{"parameterUnit":"m.s-1","parameterCategory":1,"la1":30.2991,"la2":30.254,"lo1":-89.0895,"lo2":-89.0444,"dy":0.0017,"dx":0.0017,"nx":28,"ny":28,"refTime":"2024-03-22T03:00:00:Z","depth":0,"parameterNumber":2,"parameterNumberName":"U-component_of_WINDS"},"data":[0,0,0,0,0,0,0,0,0,0,0,0,0,0,0,0,0,0,0,0,0,0,0,0,0,0,0,0,0,0,0,0,0,0,0,0,0,0,0,0,0,0,0,0,0,0,0,0,0,0,0,0,0,0,0,0,0,0,2.0836,2.0834,0,2.0713,2.0712,2.071,2.0578,2.0576,2.0574,2.0573,2.0447,2.0446,2.0444,0,0,0,0,0,0,0,0,0,0,0,0,0,2.0957,2.0955,2.0836,2.0834,2.0833,2.0713,2.0712,2.071,2.0578,2.0576,2.0574,2.0572,2.0448,2.0446,2.0444,0,0,0,0,0,0,0,0,0,0,0,0,0,2.0876,2.0955,2.0836,2.0753,2.0744,2.0714,2.0712,2.071,2.0579,2.0576,2.0573,2.0571,2.0449,2.0446,2.0444,2.0486,0,0,2.0437,2.0436,0,0,0,0,0,0,0,0,2.0881,2.0872,2.0767,2.0758,2.0749,2.0658,2.0708,2.0635,2.058,2.0642,2.0572,2.0569,2.052,2.0511,2.0495,2.048,2.0475,2.0436,2.0435,2.0434,2.0433,0,0,0,0,0,0,0,2.0887,2.0877,2.0787,2.0765,2.0754,2.0722,2.0707,2.0694,2.0598,2.0636,2.0626,2.0613,2.0514,2.0497,2.0491,2.0473,2.0437,2.0434,2.0433,2.0432,2.0488,2.0491,0,0,0,0,0,0,2.0905,2.0882,2.0791,2.0784,2.0809,2.0722,2.0706,2.069,2.0598,2.0581,2.0616,2.0608,2.0503,2.0494,2.0486,2.053,2.0434,2.0432,2.043,2.0485,2.0489,2.0492,0,0,0,0,0,0,2.0908,2.0898,2.0796,2.083,2.0815,2.0723,2.0706,2.0689,2.0672,2.0583,2.0565,2.0616,2.05,2.0489,2.0487,2.0524,2.0431,2.0429,2.0482,2.0486,2.049,2.062,0,0,0,0,0,0,2.0912,2.09,2.0915,2.0831,2.0813,2.08,2.0709,2.0689,2.0668,2.0656,2.0578,2.0562,2.0497,2.0492,2.0485,2.0519,2.0427,2.0478,2.0484,2.0489,2.0612,2.0628,2.0642,0,0,0,0,0,2.0917,2.0956,2.0916,2.0906,2.083,2.0802,2.0792,2.0716,2.0672,2.0686,2.0629,2.0565,2.0521,2.0492,2.0484,2.0518,2.0476,2.0482,2.0489,2.0605,2.0625,2.0641,0,0,0,0,0,0,2.1046,2.0943,2.0898,2.0911,2.0867,2.078,2.0796,2.0739,2.0706,2.0696,2.0602,2.0586,2.0596,2.0556,2.0526,2.0555,2.0489,2.0494,2.058,2.0598,2.0613,2.0623,2.0425,0,0,0,0,0,2.1076,2.1062,2.0973,2.0993,2.0973,2.0889,2.0874,2.0819,2.0769,2.0749,2.0691,2.0646,2.0621,2.0607,2.058,2.0605,2.0587,2.0624,2.0639,2.0652,2.0658,2.067,2.0686,2.0514,2.0513,2.0513,0,0,2.1138,2.108,2.1077,2.1018,2.0976,2.0964,2.0874,2.0864,2.0855,2.0747,2.0743,2.0699,2.0641,2.0654,2.0656,2.0621,2.0701,2.066,2.0671,2.067,2.0678,2.0695,2.0709,2.0518,2.0517,2.0516,0,0,2.1245,2.1199,2.1212,2.1172,2.1111,2.1055,2.1058,2.098,2.0947,2.0941,2.0861,2.0848,2.0808,2.077,2.0746,2.084,2.0781,2.0834,2.0913,2.0926,2.0939,2.0951,2.0986,2.1,2.084,2.084,2.084,0,2.133,2.1308,2.1225,2.1221,2.1198,2.1101,2.1113,2.1079,2.1013,2.0999,2.096,2.0909,2.0863,2.0866,2.0889,2.0872,2.0874,2.0843,2.0944,2.0955,2.0964,2.0997,2.101,2.0847,2.0846,2.0846,2.0845,0,2.1416,2.1403,2.142,2.1359,2.1337,2.1342,2.126,2.1249,2.1196,2.1144,2.114,2.1081,2.1041,2.1037,2.0985,2.1034,2.1014,2.0961,2.0894,2.0989,2.1018,2.103,2.0857,2.0855,2.0853,2.0851,0,0,2.1602,2.1495,2.1503,2.1475,2.14,2.1388,2.1389,2.1349,2.1342,2.1299,2.1298,2.1267,2.1218,2.1191,2.1133,2.1144,2.1225,2.109,2.1087,2.1119,2.1276,2.1318,2.1334,2.1184,2.1186,2.1188,2.1282,0,2.1697,2.1692,2.1618,2.1634,2.1622,2.1529,2.1529,2.1484,2.1436,2.1418,2.1364,2.1344,2.128,2.1263,2.127,2.1214,2.1256,2.1206,2.1184,2.1184,2.1203,2.1349,2.1393,2.1484,2.1292,2.1294,2.1296,0,2.1808,2.1773,2.1788,2.1714,2.1706,2.1708,2.1667,2.1651,2.1598,2.1562,2.1533,2.1468,2.1464,2.1399,2.1393,2.1361,2.1347,2.1318,2.132,2.1317,2.1247,2.1351,2.1511,2.1526,2.1312,2.1311,2.131,0,2.1945,2.19,2.1904,2.1882,2.1796,2.18,2.1764,2.1708,2.169,2.1654,2.1641,2.1605,2.1586,2.156,2.1488,2.1447,2.149,2.1419,2.1462,2.1464,2.1476,2.1477,2.1639,2.1465,2.1465,2.1464,2.1464,0,2.206,2.2074,2.1965,2.1967,2.198,2.1895,2.191,2.1865,2.1816,2.1809,2.1726,2.1721,2.1625,2.1609,2.1552,2.1557,2.1548,2.152,2.1505,2.1529,2.1533,2.152,2.1512,2.1468,2.1467,2.1466,2.1466,0,2.2215,2.2143,2.2141,2.206,2.204,2.2053,2.1983,2.1983,2.1929,2.1921,2.1914,2.1831,2.1808,2.1733,2.1691,2.1653,2.1676,2.1646,2.1695,2.1685,2.1733,2.173,2.1894,2.1911,2.1725,2.1727,2.1728,0,2.2295,2.2303,2.2223,2.2212,2.218,2.2164,2.2145,2.2061,2.2045,2.1986,2.1993,2.1964,2.1936,2.1904,2.184,2.1808,2.1778,2.1838,2.1773,2.1797,2.1782,2.1783,2.1784,2.1853,2.1855,2.1857,2.1859,0,2.2445,2.2408,2.2384,2.2348,2.2328,2.2296,2.2258,2.2254,2.216,2.2147,2.2123,2.2102,2.206,2.2032,2.199,2.1953,2.1892,2.1879,2.1888,2.1913,2.1942,2.1929,2.1735,2.1876,2.1875,2.1873,2.1872,2.1872,2.2565,2.2569,2.2514,2.249,2.2453,2.2421,2.2417,2.2363,2.2342,2.2301,2.2253,2.2235,2.2183,2.212,2.2088,2.2073,2.2039,2.2051,2.2054,2.2059,2.2071,2.1943,2.2065,2.2064,2.2063,2.2063,2.2063,0,2.2713,2.2672,2.2652,2.2602,2.2584,2.2527,2.2482,2.2471,2.2457,2.2413,2.2388,2.2361,2.2334,2.2268,2.2235,2.2236,2.2207,2.2231,2.2231,2.2224,2.2102,2.2099,2.2255,2.2255,2.2255,2.2255,2.2255,2.2255,2.2787,2.2791,2.2749,2.2734,2.2693,2.2676,2.2656,2.2626,2.2591,2.2565,2.2542,2.2499,2.2447,2.2409,2.2382,2.2363,2.2356,2.239,2.2362,2.225,2.2232,2.2215,2.2212,2.2388,2.2389,2.2485,2.2486,2.2487]},{"header":{"parameterUnit":"m.s-1","parameterCategory":1,"la1":30.2991,"la2":30.254,"lo1":-89.0895,"lo2":-89.0444,"dy":0.0017,"dx":0.0017,"nx":28,"ny":28,"refTime":"2024-03-22T03:00:00:Z","depth":0,"parameterNumber":3,"parameterNumberName":"V-component_of_WINDS"},"data":[0,0,0,0,0,0,0,0,0,0,0,0,0,0,0,0,0,0,0,0,0,0,0,0,0,0,0,0,0,0,0,0,0,0,0,0,0,0,0,0,0,0,0,0,0,0,0,0,0,0,0,0,0,0,0,0,0,0,-5.0162,-5.0163,0,-5.0179,-5.0179,-5.0179,-5.0119,-5.0117,-5.0116,-5.0114,-5.0129,-5.0131,-5.0133,0,0,0,0,0,0,0,0,0,0,0,0,0,-5.0076,-5.0078,-5.0162,-5.0163,-5.0163,-5.0179,-5.0179,-5.0179,-5.0119,-5.0117,-5.0115,-5.0113,-5.0128,-5.0131,-5.0133,0,0,0,0,0,0,0,0,0,0,0,0,0,-5.0105,-5.0078,-5.0162,-5.0135,-5.0133,-5.0179,-5.0179,-5.0179,-5.012,-5.0117,-5.0114,-5.0112,-5.0127,-5.013,-5.0133,-5.0206,0,0,-5.0143,-5.0144,0,0,0,0,0,0,0,0,-5.0103,-5.0108,-5.0139,-5.0137,-5.0134,-5.0144,-5.0154,-5.0188,-5.0121,-5.0125,-5.0114,-5.0111,-5.0136,-5.0138,-5.0147,-5.0207,-5.0208,-5.0143,-5.0145,-5.0146,-5.0147,0,0,0,0,0,0,0,-5.0101,-5.0107,-5.0169,-5.0139,-5.0137,-5.0121,-5.0122,-5.016,-5.0145,-5.0124,-5.012,-5.0123,-5.0134,-5.0144,-5.0147,-5.0208,-5.0143,-5.0146,-5.0148,-5.0149,-5.0328,-5.0331,0,0,0,0,0,0,-5.0103,-5.0106,-5.0168,-5.0169,-5.0112,-5.0124,-5.0126,-5.0144,-5.0145,-5.0142,-5.0125,-5.012,-5.014,-5.0144,-5.0147,-5.0233,-5.0146,-5.0149,-5.0151,-5.0325,-5.0329,-5.0332,0,0,0,0,0,0,-5.0102,-5.011,-5.0168,-5.0136,-5.0143,-5.0129,-5.0149,-5.0145,-5.0156,-5.0145,-5.0142,-5.0138,-5.0138,-5.0143,-5.0192,-5.0232,-5.0151,-5.0154,-5.0322,-5.0326,-5.033,-5.0404,0,0,0,0,0,0,-5.0099,-5.0109,-5.0138,-5.0138,-5.0145,-5.0213,-5.0152,-5.0148,-5.0161,-5.0155,-5.0157,-5.0155,-5.0137,-5.0188,-5.0195,-5.0235,-5.0156,-5.0318,-5.0324,-5.0329,-5.0398,-5.0411,-5.0421,0,0,0,0,0,-5.0097,-5.0158,-5.0139,-5.0147,-5.018,-5.0216,-5.022,-5.0198,-5.0165,-5.0193,-5.0186,-5.0155,-5.0227,-5.0193,-5.0201,-5.0243,-5.0315,-5.0322,-5.0328,-5.0393,-5.0408,-5.0421,0,0,0,0,0,0,-5.0162,-5.0157,-5.0137,-5.02,-5.0209,-5.0205,-5.024,-5.0215,-5.0233,-5.0226,-5.0198,-5.0199,-5.0253,-5.0253,-5.0216,-5.0313,-5.0265,-5.0274,-5.0312,-5.0326,-5.0337,-5.0336,-5.0159,0,0,0,0,0,-5.0184,-5.0214,-5.0208,-5.0264,-5.0269,-5.0254,-5.0269,-5.0252,-5.026,-5.0263,-5.026,-5.0268,-5.0292,-5.0309,-5.0331,-5.0398,-5.0397,-5.043,-5.0441,-5.0451,-5.0459,-5.0493,-5.0508,-5.0353,-5.0353,-5.0353,0,0,-5.0229,-5.023,-5.0251,-5.0277,-5.0282,-5.0313,-5.0258,-5.0293,-5.0316,-5.0268,-5.0314,-5.0312,-5.032,-5.0378,-5.0403,-5.0379,-5.0501,-5.0459,-5.0467,-5.0469,-5.0502,-5.0516,-5.0529,-5.0357,-5.0357,-5.0356,0,0,-5.0328,-5.0332,-5.0379,-5.0385,-5.0393,-5.0383,-5.0394,-5.0394,-5.0391,-5.0438,-5.0402,-5.0428,-5.0471,-5.0478,-5.0486,-5.0587,-5.0559,-5.0595,-5.0655,-5.0689,-5.0702,-5.0712,-5.0748,-5.0761,-5.0602,-5.0602,-5.0603,0,-5.0383,-5.043,-5.0406,-5.0444,-5.0456,-5.0415,-5.0462,-5.0468,-5.0483,-5.0492,-5.0465,-5.0517,-5.0519,-5.0578,-5.0603,-5.0611,-5.0623,-5.0595,-5.0702,-5.0712,-5.0722,-5.0756,-5.0769,-5.0607,-5.0606,-5.0606,-5.0605,0,-5.0497,-5.053,-5.0567,-5.0583,-5.0599,-5.0641,-5.0623,-5.0642,-5.0623,-5.0615,-5.0662,-5.0663,-5.0684,-5.0697,-5.0678,-5.0753,-5.0738,-5.0707,-5.0658,-5.0741,-5.0773,-5.0785,-5.0613,-5.0611,-5.061,-5.0609,0,0,-5.0639,-5.064,-5.0654,-5.0661,-5.0666,-5.0691,-5.0731,-5.0752,-5.0769,-5.078,-5.0812,-5.0849,-5.082,-5.083,-5.0812,-5.0842,-5.0922,-5.0807,-5.0807,-5.0829,-5.1004,-5.1027,-5.1043,-5.0903,-5.0905,-5.0907,-5.1003,0,-5.0736,-5.0805,-5.0784,-5.0853,-5.0883,-5.0843,-5.0877,-5.0884,-5.0878,-5.0901,-5.0893,-5.092,-5.088,-5.0885,-5.0913,-5.0906,-5.0956,-5.0899,-5.0932,-5.0934,-5.0932,-5.1059,-5.1084,-5.1175,-5.1015,-5.1017,-5.1019,0,-5.0858,-5.0875,-5.0947,-5.0947,-5.0959,-5.0991,-5.1008,-5.1031,-5.1037,-5.103,-5.1042,-5.1017,-5.1055,-5.1006,-5.1058,-5.102,-5.1032,-5.103,-5.1033,-5.1036,-5.0982,-5.1065,-5.1203,-5.1217,-5.1038,-5.1036,-5.1035,0,-5.0954,-5.0995,-5.1043,-5.105,-5.1051,-5.1074,-5.1075,-5.1079,-5.1093,-5.1108,-5.1117,-5.1136,-5.1146,-5.1161,-5.1142,-5.1108,-5.1197,-5.1146,-5.1192,-5.1192,-5.1212,-5.1211,-5.1355,-5.122,-5.122,-5.122,-5.1219,0,-5.1065,-5.1111,-5.1086,-5.1116,-5.1166,-5.1141,-5.119,-5.1187,-5.1191,-5.1219,-5.1185,-5.1212,-5.1185,-5.1209,-5.1194,-5.1239,-5.1244,-5.1239,-5.1235,-5.1242,-5.1243,-5.125,-5.1244,-5.1223,-5.1222,-5.1222,-5.1221,0,-5.1181,-5.1166,-5.1216,-5.1213,-5.1214,-5.1251,-5.1247,-5.1274,-5.1265,-5.1301,-5.1307,-5.1293,-5.1319,-5.1301,-5.1328,-5.1318,-5.1377,-5.1364,-5.1375,-5.1372,-5.1418,-5.1414,-5.1571,-5.1591,-5.1443,-5.1445,-5.1446,0,-5.1253,-5.1288,-5.1288,-5.1305,-5.1308,-5.1335,-5.1349,-5.1326,-5.1342,-5.1351,-5.1377,-5.14,-5.1418,-5.1462,-5.1453,-5.1473,-5.146,-5.1514,-5.1463,-5.147,-5.1461,-5.146,-5.1463,-5.1524,-5.1526,-5.1528,-5.1529,0,-5.1383,-5.1373,-5.1395,-5.1414,-5.1432,-5.1446,-5.1457,-5.1472,-5.1448,-5.1467,-5.1494,-5.1508,-5.1535,-5.1559,-5.1575,-5.1576,-5.1549,-5.1545,-5.1556,-5.1565,-5.157,-5.1568,-5.1404,-5.1541,-5.154,-5.1539,-5.1538,-5.1538,-5.1479,-5.1507,-5.1512,-5.1537,-5.1543,-5.1554,-5.1579,-5.1573,-5.1595,-5.1615,-5.1599,-5.1632,-5.1636,-5.1655,-5.1659,-5.1683,-5.1661,-5.1678,-5.1682,-5.1687,-5.1694,-5.1566,-5.1686,-5.1686,-5.1685,-5.1685,-5.1685,0,-5.1606,-5.1607,-5.1631,-5.1647,-5.1667,-5.1639,-5.165,-5.1668,-5.1697,-5.1703,-5.1721,-5.1752,-5.1774,-5.1767,-5.1787,-5.1808,-5.1796,-5.1814,-5.1813,-5.1813,-5.1712,-5.17,-5.1824,-5.1824,-5.1824,-5.1824,-5.1824,-5.1823,-5.1675,-5.1722,-5.1713,-5.1762,-5.1762,-5.1793,-5.1802,-5.1811,-5.1816,-5.1852,-5.1871,-5.1866,-5.1867,-5.1887,-5.1906,-5.1903,-5.1912,-5.1935,-5.1928,-5.1834,-5.182,-5.1807,-5.1796,-5.1937,-5.1938,-5.2027,-5.2028,-5.2028]}]]